Weather History for Nellis AFB, NV

Change the Weather History Date:

Sunday, March 17, 2013

  Actual Average Record
Temperature  
Mean Temperature 71 °F -  
Max Temperature 81 °F 73 °F 89 °F (2007)
Min Temperature 59 °F 46 °F 33 °F (2002)
Cooling Degree Days 6    
Growing Degree Days 21 (Base 50)    
Moisture  
Dew Point 10 °F    
Average Humidity 11    
Maximum Humidity 22    
Minimum Humidity 4    
Precipitation  
Precipitation 0.00 in - - ()
Sea Level Pressure  
Sea Level Pressure 29.79 in    
Wind  
Wind Speed 13 mph (WNW)    
Max Wind Speed 25 mph    
Max Gust Speed 33 mph    
Visibility 10 miles    
Events      
Averages and records for this station are not official NWS values.
T = Trace of Precipitation, MM = Missing Value Source: NWS Daily Summary

Daily Weather History Graph

Daily Weather History Graph

Search for Another Location

Airport:

Trip Planner

Search our weather history database for the weather conditions in past years. The results will help you decide how hot, cold, wet, or windy it might be!

Date:

Astronomy

Mar. 17, 2013 Rise Set
Actual Time 6:47 AM PDT 6:49 PM PDT
Civil Twilight 6:21 AM PDT 7:15 PM PDT
Nautical Twilight 5:52 AM PDT 7:45 PM PDT
Astronomical Twilight 5:21 AM PDT 8:15 PM PDT
Moon 10:13 AM PDT (3/17) No Moon Set
Length of Visible Light 12h 53m
Length of Day
12h 02m
Waxing Crescent, 32% of the Moon is Illuminated
Mar 17
Waxing Crescent
Mar 19
First Quarter
Mar 27
Full
Apr 2
Last Quarter
Apr 10
New

Hourly Weather History & Observations

Time (PDT) Temp. Dew Point Humidity Pressure Visibility Wind Dir Wind Speed Gust Speed Precip Events Conditions
12:58 AM 61.0 °F 21.9 °F 22% 29.68 in 10.0 mi NW 10.4 mph 18.4 mph N/A   Clear
1:58 AM 64.8 °F 20.1 °F 18% 29.71 in 10.0 mi Variable 2.3 mph - N/A   Clear
2:58 AM 68.9 °F 17.8 °F 14% 29.72 in 10.0 mi WNW 19.6 mph 24.2 mph N/A   Clear
3:58 AM 68.5 °F 19.8 °F 16% 29.72 in 10.0 mi WNW 17.3 mph - N/A   Clear
4:58 AM 67.1 °F 19.9 °F 17% 29.75 in 10.0 mi WNW 19.6 mph 32.2 mph N/A   Clear
5:58 AM 64.9 °F 19.2 °F 17% 29.79 in 10.0 mi West 11.5 mph - N/A   Clear
6:52 AM 64.4 °F 17.6 °F 16% 29.85 in 10.0 mi West 15.0 mph - N/A   Clear
6:58 AM 65.7 °F 17.1 °F 15% 29.81 in 10.0 mi West 17.3 mph - N/A   Clear
7:58 AM 66.4 °F 18.5 °F 16% 29.84 in 10.0 mi WNW 18.4 mph 23.0 mph N/A   Clear
8:23 AM 68.0 °F 15.8 °F 13% 29.90 in 10.0 mi NNW 12.7 mph - N/A   Clear
8:58 AM 68.4 °F 16.3 °F 14% 29.87 in 10.0 mi Variable 2.3 mph - N/A   Clear
9:58 AM 72.9 °F 13.5 °F 10% 29.86 in 10.0 mi West 8.1 mph 18.4 mph N/A   Clear
10:58 AM 73.8 °F 11.8 °F 9% 29.86 in 10.0 mi North 6.9 mph - N/A   Clear
11:58 AM 76.6 °F 1.0 °F 5% 29.84 in 10.0 mi WNW 19.6 mph 27.6 mph N/A   Clear
12:58 PM 78.8 °F 2.7 °F 5% 29.81 in 10.0 mi WNW 21.9 mph 27.6 mph N/A   Clear
1:58 PM 80.1 °F 3.6 °F 5% 29.77 in 10.0 mi West 25.3 mph 33.4 mph N/A   Clear
2:58 PM 81.0 °F 4.1 °F 5% 29.78 in 10.0 mi NW 16.1 mph 29.9 mph N/A   Clear
3:13 PM 80.6 °F 3.2 °F 5% 29.82 in 10.0 mi West 17.3 mph 25.3 mph N/A   Clear
3:25 PM 80.6 °F 5.0 °F 6% 29.81 in 10.0 mi NW 18.4 mph 27.6 mph N/A   Clear
3:58 PM 81.5 °F 3.7 °F 5% 29.76 in 10.0 mi NW 21.9 mph 29.9 mph N/A   Clear
4:58 PM 81.5 °F -0.2 °F 4% 29.74 in 10.0 mi NW 18.4 mph - N/A   Clear
5:58 PM 80.4 °F -1.1 °F 4% 29.75 in 10.0 mi WNW 11.5 mph - N/A   Clear
6:58 PM 77.7 °F 1.8 °F 5% 29.75 in 10.0 mi West 6.9 mph - N/A   Clear
7:58 PM 74.3 °F 2.5 °F 6% 29.75 in 10.0 mi Variable 3.5 mph - N/A   Clear
8:58 PM 70.2 °F 3.6 °F 7% 29.79 in 10.0 mi NW 4.6 mph - N/A   Clear
9:58 PM 63.9 °F 10.6 °F 12% 29.81 in 10.0 mi Variable 2.3 mph - N/A   Clear
10:58 PM 65.8 °F 8.4 °F 11% 29.82 in 10.0 mi Variable 1.2 mph - N/A   Clear
11:58 PM 59.2 °F 12.9 °F 16% 29.83 in 10.0 mi NNE 5.8 mph - N/A   Clear